Volver al catálogo

BLOCK DM-SL R/B

ActivoHEO
NORAD 29350·ROCKET BODY· XX

Lanzado Aug 22, 2006 desde Sea Launch Platform

Loading…

Próximos Pases (próximas 24 horas)

TLE

ActualizadoSource: Space-Track

Época: Sep 14, 2026, 14:12 UTC

1 29350U 06034B   26257.59182775 -.00000170  00000-0  00000-0 0  9997
2 29350   1.1834 356.9213 6373010 150.3396  68.5360  2.12153621155512

Sigue BLOCK DM-SL R/B en tiempo real con AllMySat

Download on the App Store